[[{"header":{"parameterUnit":"m.s-1","parameterCategory":1,"la1":30.2991,"la2":30.254,"lo1":-89.0895,"lo2":-89.0444,"dy":0.0017,"dx":0.0017,"nx":28,"ny":28,"refTime":"2023-08-12T09:00:00:Z","depth":0,"parameterNumber":2,"parameterNumberName":"U-component_of_WINDS"},"data":[0,0,0,0,0,0,0,0,0,0,0,0,0,0,0,0,0,0,0,0,0,0,0,0,0,0,0,0,0,0,0,0,0,0,0,0,0,0,0,0,0,0,0,0,0,0,0,0,0,0,0,0,0,0,0,0,0,0,3.6252,3.6252,0,3.6284,3.6285,3.6285,3.6214,3.6212,3.621,3.6207,3.624,3.6242,3.6245,0,0,0,0,0,0,0,0,0,0,0,0,0,3.6127,3.613,3.6252,3.6252,3.6253,3.6284,3.6285,3.6285,3.6215,3.6212,3.6209,3.6206,3.6239,3.6242,3.6246,0,0,0,0,0,0,0,0,0,0,0,0,0,3.6172,3.6131,3.6252,3.6221,3.6219,3.6284,3.6285,3.6285,3.6215,3.6212,3.6208,3.6205,3.6237,3.6242,3.6246,3.6342,0,0,3.626,3.6262,0,0,0,0,0,0,0,0,3.617,3.6177,3.6226,3.6224,3.6221,3.6242,3.6252,3.6304,3.6216,3.6217,3.6207,3.6203,3.6243,3.6247,3.626,3.6343,3.6345,3.626,3.6263,3.6265,3.6266,0,0,0,0,0,0,0,3.6167,3.6175,3.6265,3.6226,3.6224,3.6205,3.6208,3.6262,3.6249,3.6216,3.6211,3.6216,3.6241,3.6256,3.626,3.6345,3.626,3.6264,3.6267,3.6268,3.6504,3.6507,0,0,0,0,0,0,3.6168,3.6173,3.6264,3.6266,3.6187,3.621,3.6213,3.6239,3.6248,3.6246,3.6219,3.6213,3.625,3.6255,3.6261,3.637,3.6265,3.6269,3.6271,3.6501,3.6505,3.6509,0,0,0,0,0,0,3.6165,3.6177,3.6262,3.6218,3.6228,3.6216,3.6245,3.6241,3.6256,3.625,3.6247,3.6237,3.6248,3.6255,3.6321,3.6371,3.6271,3.6275,3.6496,3.6502,3.6507,3.6592,0,0,0,0,0,0,3.6162,3.6176,3.6213,3.6219,3.623,3.6323,3.6248,3.6244,3.6264,3.6256,3.6266,3.6264,3.6246,3.6315,3.6326,3.6375,3.6278,3.6492,3.6499,3.6505,3.6584,3.6599,3.6612,0,0,0,0,0,3.6158,3.6237,3.6216,3.6227,3.6276,3.6326,3.6332,3.6309,3.6268,3.6304,3.63,3.6264,3.6364,3.6323,3.6334,3.6385,3.6488,3.6497,3.6505,3.6578,3.6596,3.6612,0,0,0,0,0,0,3.6237,3.6237,3.6213,3.6297,3.6312,3.6314,3.6359,3.633,3.6357,3.6348,3.6319,3.6322,3.6393,3.6396,3.635,3.6476,3.6419,3.643,3.6471,3.6488,3.6502,3.6498,3.6282,0,0,0,0,0,3.6264,3.6305,3.6303,3.6376,3.6385,3.6371,3.6392,3.6373,3.6387,3.6393,3.6394,3.6409,3.6443,3.6466,3.6498,3.6585,3.6584,3.6626,3.664,3.6651,3.666,3.6702,3.672,3.6535,3.6535,3.6535,0,0,3.6321,3.6326,3.6353,3.6392,3.6402,3.6443,3.6377,3.6425,3.6454,3.64,3.6462,3.6463,3.6478,3.6554,3.6587,3.6559,3.6711,3.6662,3.6671,3.6673,3.6712,3.673,3.6745,3.6541,3.654,3.6539,0,0,3.6443,3.6453,3.6513,3.6524,3.6538,3.6528,3.6543,3.6549,3.6547,3.6609,3.6568,3.6603,3.6665,3.6675,3.6689,3.6814,3.678,3.6825,3.6896,3.6938,3.6952,3.6965,3.7006,3.7021,3.6834,3.6835,3.6835,0,3.6511,3.6572,3.6548,3.6597,3.6614,3.6567,3.6626,3.6638,3.6663,3.6675,3.6642,3.6716,3.6723,3.6798,3.6829,3.6843,3.6856,3.6822,3.6952,3.6965,3.6976,3.7015,3.7031,3.684,3.6839,3.6839,3.6838,0,3.6653,3.6696,3.6743,3.6766,3.6789,3.6844,3.6825,3.6851,3.683,3.6823,3.6885,3.6891,3.6922,3.6939,3.692,3.7012,3.6993,3.6958,3.6899,3.6999,3.7035,3.7049,3.6847,3.6845,3.6844,3.6842,0,0,3.6826,3.6834,3.6851,3.6859,3.6872,3.6904,3.6955,3.6984,3.7005,3.7024,3.7064,3.7116,3.7082,3.7098,3.7079,3.7117,3.721,3.7076,3.7076,3.7097,3.7307,3.7331,3.7349,3.7189,3.7192,3.7194,3.7305,0,3.6944,3.7031,3.701,3.7096,3.7133,3.7089,3.7133,3.7144,3.7139,3.7169,3.7163,3.7199,3.7154,3.7162,3.7197,3.7191,3.7251,3.7184,3.7224,3.7225,3.7218,3.7368,3.7394,3.7498,3.7319,3.7321,3.7323,0,3.7094,3.7116,3.7205,3.7208,3.7223,3.7263,3.7286,3.7317,3.7328,3.7322,3.7338,3.7311,3.736,3.7304,3.7369,3.7323,3.7338,3.7338,3.7342,3.7341,3.7278,3.7368,3.7531,3.7545,3.7345,3.7344,3.7342,0,3.7205,3.7258,3.7317,3.7327,3.7333,3.7361,3.7365,3.7373,3.7391,3.7412,3.7423,3.745,3.7464,3.7484,3.7465,3.7426,3.7532,3.7475,3.7525,3.7525,3.7546,3.7545,3.771,3.7563,3.7563,3.7563,3.7562,0,3.7337,3.7393,3.7367,3.7403,3.7463,3.7438,3.7498,3.7496,3.7504,3.7537,3.7502,3.7535,3.7509,3.7539,3.7525,3.7578,3.7586,3.758,3.7575,3.7581,3.7581,3.7588,3.7579,3.7567,3.7566,3.7565,3.7564,0,3.7471,3.7457,3.7517,3.7517,3.7519,3.7563,3.7562,3.7595,3.7587,3.763,3.7638,3.7625,3.7658,3.7642,3.7677,3.7667,3.7735,3.7723,3.7731,3.7726,3.7776,3.777,3.7948,3.7969,3.7813,3.7814,3.7816,0,3.7554,3.7595,3.7599,3.7619,3.7625,3.7658,3.7675,3.7652,3.7671,3.7686,3.7716,3.7746,3.7769,3.7824,3.7817,3.7842,3.7827,3.7888,3.7831,3.7835,3.7823,3.7819,3.7822,3.7898,3.79,3.7902,3.7903,0,3.7702,3.7692,3.7719,3.7742,3.7764,3.7782,3.7796,3.7815,3.7791,3.7815,3.7848,3.7865,3.79,3.7929,3.7951,3.7954,3.7924,3.7922,3.7934,3.7939,3.794,3.7936,3.7758,3.7917,3.7915,3.7914,3.7914,3.7913,3.781,3.7843,3.785,3.788,3.7888,3.7902,3.7931,3.7926,3.7953,3.7979,3.7964,3.8001,3.8009,3.8036,3.8043,3.8071,3.8046,3.8065,3.8069,3.8073,3.8078,3.7939,3.8075,3.8075,3.8075,3.8074,3.8074,0,3.7952,3.7954,3.7982,3.8002,3.8025,3.7996,3.801,3.8031,3.8064,3.8075,3.8097,3.8133,3.8161,3.8156,3.8181,3.8204,3.8191,3.8211,3.8207,3.8207,3.8101,3.8085,3.8221,3.8221,3.8221,3.8221,3.8221,3.8221,3.8029,3.8081,3.8072,3.8128,3.813,3.8165,3.8175,3.8187,3.8195,3.8237,3.8259,3.8256,3.8259,3.8283,3.8307,3.8305,3.8314,3.8338,3.8331,3.823,3.8215,3.8201,3.8187,3.8341,3.8342,3.8434,3.8435,3.8436]},{"header":{"parameterUnit":"m.s-1","parameterCategory":1,"la1":30.2991,"la2":30.254,"lo1":-89.0895,"lo2":-89.0444,"dy":0.0017,"dx":0.0017,"nx":28,"ny":28,"refTime":"2023-08-12T09:00:00:Z","depth":0,"parameterNumber":3,"parameterNumberName":"V-component_of_WINDS"},"data":[0,0,0,0,0,0,0,0,0,0,0,0,0,0,0,0,0,0,0,0,0,0,0,0,0,0,0,0,0,0,0,0,0,0,0,0,0,0,0,0,0,0,0,0,0,0,0,0,0,0,0,0,0,0,0,0,0,0,3.1468,3.147,0,3.1638,3.164,3.1641,3.1665,3.1664,3.1662,3.1661,3.1835,3.184,3.1846,0,0,0,0,0,0,0,0,0,0,0,0,0,3.1164,3.1169,3.1468,3.147,3.1472,3.1637,3.164,3.1642,3.1666,3.1664,3.1662,3.166,3.1833,3.184,3.1847,0,0,0,0,0,0,0,0,0,0,0,0,0,3.1311,3.1171,3.1468,3.1504,3.1509,3.1637,3.164,3.1643,3.1666,3.1664,3.1661,3.1659,3.183,3.1839,3.1848,3.1951,0,0,3.1876,3.188,0,0,0,0,0,0,0,0,3.1302,3.1322,3.1497,3.1502,3.1507,3.1628,3.1596,3.1746,3.1667,3.1606,3.1661,3.1658,3.1768,3.1782,3.1819,3.196,3.1967,3.1877,3.1882,3.1886,3.1889,0,0,0,0,0,0,0,3.1292,3.1315,3.1535,3.1499,3.1506,3.1511,3.153,3.1625,3.1698,3.1612,3.1614,3.1633,3.177,3.181,3.1823,3.197,3.1876,3.1885,3.189,3.1894,3.2202,3.2205,0,0,0,0,0,0,3.1276,3.1306,3.153,3.154,3.1397,3.1519,3.1539,3.1592,3.1697,3.1711,3.1635,3.1634,3.1795,3.1812,3.1829,3.1956,3.1886,3.1895,3.19,3.2199,3.2203,3.2206,0,0,0,0,0,0,3.1269,3.1295,3.1523,3.1424,3.1453,3.1527,3.1585,3.1596,3.1636,3.1715,3.1728,3.1662,3.1794,3.1816,3.1921,3.1963,3.1899,3.1907,3.2196,3.22,3.2204,3.2212,0,0,0,0,0,0,3.126,3.1293,3.1333,3.1425,3.1458,3.1612,3.1588,3.1601,3.1652,3.1651,3.1744,3.1757,3.1794,3.1907,3.193,3.1974,3.1914,3.2193,3.2198,3.2203,3.2208,3.2215,3.2222,0,0,0,0,0,3.1249,3.1329,3.1335,3.1362,3.1511,3.1614,3.1633,3.1674,3.1655,3.1696,3.1746,3.1754,3.1954,3.1917,3.1943,3.1991,3.219,3.2196,3.2202,3.2205,3.2214,3.2222,0,0,0,0,0,0,3.1241,3.1342,3.135,3.1461,3.1529,3.1618,3.1671,3.1683,3.1758,3.1754,3.1802,3.1823,3.1924,3.1968,3.1925,3.2096,3.207,3.2082,3.2063,3.2073,3.208,3.2067,3.1922,0,0,0,0,0,3.1252,3.1328,3.1412,3.1502,3.1536,3.1597,3.1644,3.1669,3.1741,3.177,3.1829,3.1898,3.1976,3.2027,3.2104,3.2214,3.2234,3.226,3.2267,3.2272,3.2281,3.2342,3.2354,3.2226,3.2226,3.2225,0,0,3.1276,3.134,3.1386,3.1502,3.1558,3.1634,3.1621,3.1704,3.1761,3.1783,3.1884,3.1929,3.201,3.2117,3.2168,3.2157,3.2321,3.228,3.2283,3.229,3.2349,3.2361,3.2372,3.223,3.2229,3.2228,0,0,3.1359,3.1416,3.1497,3.1552,3.1636,3.1676,3.1695,3.1782,3.1813,3.1916,3.1933,3.2002,3.2136,3.2192,3.2238,3.2341,3.235,3.2364,3.2401,3.2459,3.2469,3.2478,3.2514,3.2526,3.2373,3.2373,3.2373,0,3.1378,3.1495,3.1537,3.1618,3.1668,3.1691,3.1773,3.1825,3.1929,3.1963,3.195,3.2118,3.2174,3.2294,3.2318,3.2355,3.2378,3.2354,3.2464,3.2474,3.2483,3.2517,3.2531,3.2374,3.2374,3.2374,3.2374,0,3.1514,3.1595,3.165,3.1749,3.1806,3.1887,3.194,3.1993,3.2013,3.2054,3.2157,3.2225,3.2315,3.2346,3.2367,3.2469,3.2459,3.2455,3.243,3.2496,3.2529,3.2542,3.2376,3.2376,3.2375,3.2375,0,0,3.1598,3.1718,3.1737,3.1782,3.1875,3.1938,3.202,3.2108,3.2151,3.2222,3.2291,3.2403,3.2399,3.2451,3.2479,3.253,3.2605,3.2519,3.2521,3.2532,3.272,3.2723,3.2737,3.2612,3.2614,3.2617,3.2713,0,3.1691,3.1837,3.1876,3.2,3.2074,3.2095,3.2166,3.2231,3.2271,3.234,3.2385,3.2463,3.2452,3.2484,3.2535,3.2585,3.2643,3.2578,3.2676,3.2679,3.2655,3.2755,3.2758,3.2846,3.2726,3.2729,3.273,0,3.1819,3.1891,3.2022,3.2105,3.2137,3.22,3.2283,3.2349,3.2422,3.2447,3.2505,3.2527,3.2612,3.2583,3.27,3.2655,3.2697,3.2727,3.2732,3.2742,3.2708,3.2767,3.2875,3.2888,3.2751,3.275,3.2748,0,3.1865,3.1996,3.2091,3.2129,3.2227,3.2271,3.2314,3.2385,3.2434,3.2506,3.2539,3.262,3.2665,3.2727,3.277,3.2745,3.2883,3.2858,3.2906,3.2905,3.2935,3.2932,3.305,3.2962,3.2962,3.2962,3.2962,0,3.1965,3.2044,3.2113,3.2171,3.226,3.2303,3.239,3.2434,3.2496,3.2563,3.2587,3.2649,3.2703,3.2772,3.2806,3.2897,3.2917,3.294,3.2948,3.2938,3.2935,3.2966,3.2961,3.2966,3.2965,3.2964,3.2963,0,3.2032,3.2081,3.2186,3.227,3.2293,3.2354,3.2426,3.2483,3.2524,3.2608,3.263,3.2694,3.2777,3.2826,3.2931,3.2953,3.3054,3.306,3.3029,3.3033,3.3078,3.3073,3.322,3.3241,3.314,3.3141,3.3141,0,3.2092,3.2153,3.2243,3.2289,3.2333,3.2407,3.2458,3.2503,3.2554,3.2641,3.2687,3.2771,3.2841,3.2971,3.3027,3.3107,3.3114,3.316,3.3126,3.3113,3.3114,3.3109,3.3115,3.3166,3.3167,3.3167,3.3168,0,3.2193,3.2214,3.2286,3.2366,3.2425,3.249,3.2555,3.2592,3.2648,3.2704,3.2788,3.2842,3.2948,3.3031,3.3115,3.3159,3.3173,3.3178,3.3193,3.3183,3.3163,3.3173,3.3044,3.3175,3.3174,3.3173,3.3173,3.3173,3.2258,3.2312,3.2384,3.2463,3.2516,3.2576,3.2633,3.2681,3.2752,3.2841,3.2863,3.2952,3.3022,3.3136,3.3182,3.3251,3.3244,3.3266,3.3272,3.3277,3.3277,3.3152,3.3267,3.3267,3.3267,3.3267,3.3267,0,3.2359,3.2406,3.2478,3.2567,3.2629,3.2636,3.2708,3.2759,3.2836,3.2901,3.2968,3.3064,3.3144,3.3206,3.3287,3.3331,3.3339,3.3351,3.3348,3.3358,3.328,3.3258,3.3343,3.3343,3.3343,3.3343,3.3343,3.3343,3.2419,3.2512,3.2541,3.266,3.2706,3.2792,3.2832,3.2888,3.2939,3.3045,3.3111,3.3151,3.3214,3.33,3.3373,3.3389,3.3418,3.3428,3.3445,3.3371,3.3363,3.3355,3.3335,3.3434,3.3435,3.3517,3.3518,3.3518]}]]